Location: Chuathbaluk
(61.5726°N, 159.2454°W)
Time: 03:47:27
(UTC+00:00)

Transit 2A - Pass Details

Date: 28 November 2020
Orbit: 599 x 960 km, 66.7° (Epoch: 26 January)

Event Time Altitude Azimuth Distance (km) Brightness Sun altitude
Rises 02:39:21 0° 148° (SSE) 3,613 9.5 -7.1°
Reaches altitude 10° 02:44:32 10° 112° (ESE) 2,621 8.4 -7.6°
Maximum altitude 02:45:38 11° 101° (E) 2,569 8.3 -7.7°
Drops below altitude 10° 02:46:45 10° 91° (E) 2,591 8.2 -7.8°
Enters shadow 02:48:14 - 77° (ENE) 2,733 8.2 -8.0°
Sets 02:51:41 0° 54° (NE) 3,446 - -8.3°
